Temp
24 25 22 20 20 20 19 19 18 18 17 17 16 16 16 16 16 15 15 15 15 14 14 13 13 13 13 12 12 12 11 11
25 24 22 20 20 20 19 19 18 17 16 17 16 16 16 15 15 15 15 14 14 14 14 13 13 12 12 11 11 11 11 11
22 23 22 19 19 19 19 18 17 17 17 17 17 17 16 16 16 15 15 14 14 13 13 12 12 11 11 11 10 10 10 9
21 22 21 18 17 17 18 17 17 17 17 17 17 17 16 15 14 14 14 13 13 13 12 12 11 11 10 10 10 9 9 9
21 20 18 17 16 17 18 17 17 17 17 18 17 16 15 15 14 13 13 13 13 12 12 11 11 10 10 9 9 9 9 7
20 19 19 19 18 18 18 18 18 17 18 18 17 16 14 14 13 13 13 13 12 11 11 11 10 9 8 9 9 8 7 6
19 19 19 18 19 18 18 18 18 18 18 17 16 15 14 14 14 13 13 12 11 10 10 9 8 8 8 8 7 7 6 6
18 17 17 18 18 18 18 18 16 16 16 15 15 14 14 14 13 12 11 11 10 9 9 8 8 8 7 7 7 6 6 5
18 17 17 17 18 18 17 17 15 15 15 14 14 14 14 13 12 11 10 10 9 8 8 8 7 7 7 7 7 6 5 5
17 17 17 18 18 18 17 16 15 14 14 13 13 13 12 11 11 10 9 9 8 8 7 7 7 7 6 6 6 5 5 5
18 17 17 17 18 17 17 15 14 14 13 13 12 11 11 11 10 9 9 8 8 7 7 7 6 6 6 6 5 5 5 5
18 17 17 17 17 17 17 15 14 13 13 12 11 11 10 10 10 9 9 8 7 7 7 6 6 6 6 5 5 5 5 4
18 17 17 16 17 17 17 15 14 13 13 12 11 11 10 10 10 9 9 8 7 7 6 6 6 5 6 5 5 5 4 4
19 17 17 16 16 16 16 15 14 13 12 12 11 11 10 10 10 9 9 8 7 7 6 6 6 5 5 5 4 4 3 3
19 17 17 16 16 16 16 15 14 13 12 12 11 11 11 10 10 9 9 8 7 6 6 6 6 5 5 4 4 3 3 2
18 17 16 16 16 15 15 15 14 13 12 12 12 11 11 10 9 9 8 7 7 7 6 6 6 5 5 4 4 3 3 2
19 17 16 16 15 14 15 15 14 13 12 12 12 10 10 9 8 8 7 7 7 7 6 6 6 5 5 4 3 3 2 1
19 17 17 16 15 16 15 15 14 13 13 12 11 9 9 8 7 7 7 6 7 6 6 6 6 5 4 3 2 2 1 0
18 18 18 18 17 17 16 14 13 12 12 9 9 8 7 6 6 6 5 5 4 6 6 5 5 4 4 3 2 1 0 -0
Height
799 802 807 811 813 822 825 829 833 836 840 845 849 853 855 856 856 856 857 858 861 863 864 865 865 864 862 862 861 861 860 858
797 801 806 811 814 816 820 824 830 834 840 842 848 851 854 855 855 855 857 860 863 864 864 863 863 862 861 861 860 859 858 856
795 799 804 808 811 814 817 822 826 833 837 841 845 848 851 852 852 855 858 860 861 861 862 863 862 861 860 859 858 857 856 854
795 796 802 807 810 813 816 821 824 829 834 839 844 846 849 851 852 855 857 859 859 859 859 859 859 858 858 857 857 855 854 854
792 794 800 806 811 813 817 820 823 827 833 835 837 841 844 847 850 854 856 856 856 856 855 855 856 856 855 855 855 854 852 852
786 793 799 804 809 812 816 819 823 826 829 831 834 838 841 844 849 852 854 854 854 854 854 854 854 854 854 854 853 852 851 852
785 790 797 802 808 812 816 820 822 823 825 828 831 833 838 843 847 849 851 851 852 853 853 853 854 854 853 853 853 852 851 851
784 790 796 801 806 813 816 818 821 823 825 828 831 834 838 842 845 846 848 850 851 851 852 852 852 853 852 852 851 850 849 849
785 790 794 802 808 812 816 817 820 823 826 829 833 835 837 840 843 845 847 849 850 851 851 851 851 852 851 849 848 848 848 847
786 791 795 801 807 812 816 818 821 825 827 830 834 836 837 839 842 845 848 849 850 850 851 850 850 850 849 847 846 846 845 845
784 789 793 798 804 810 816 819 822 826 829 833 835 837 839 841 843 846 848 847 850 850 850 849 850 848 845 844 843 843 842 842
780 785 790 794 801 806 812 817 820 824 828 832 836 838 840 841 843 844 845 846 848 849 848 849 848 848 846 843 842 839 837 836
773 778 785 791 796 802 806 811 816 821 826 830 834 837 839 841 842 843 844 846 847 846 845 845 845 844 843 842 842 839 836 834
768 774 779 784 790 795 800 805 810 816 821 826 830 834 837 839 840 841 843 843 843 843 843 841 839 838 838 838 837 836 836 836
764 769 773 777 781 786 794 800 805 810 816 821 826 830 833 836 838 839 840 840 840 840 840 840 838 835 833 833 834 833 833 832
762 764 770 774 780 785 791 796 801 806 811 817 821 825 830 833 835 835 837 837 837 836 835 834 833 832 831 830 828 828 828 829
760 765 767 771 775 781 787 791 796 801 807 813 818 822 825 827 831 832 833 834 833 831 831 830 828 827 826 826 827 825 826 826
761 765 767 770 774 777 781 786 792 797 804 809 813 816 821 824 827 831 833 831 829 827 825 824 822 821 821 821 822 823 823 822
762 764 768 769 772 775 779 784 790 797 803 807 811 813 819 824 828 829 829 828 826 824 822 820 817 817 817 818 819 819 819 820
Wind_Speed
25 26 35 36 39 36 32 30 28 26 23 20 10 10 9 14 14 12 11 9 7 9 9 7 6 5 8 11 13 11 13 15
17 14 25 33 38 38 36 33 29 24 23 20 14 16 17 18 16 13 14 11 7 3 2 5 8 9 11 12 14 15 16 11
15 15 20 32 35 36 35 33 29 21 25 22 19 20 21 16 13 13 12 10 6 5 6 6 8 11 10 11 14 16 11 8
9 17 16 31 33 34 35 34 27 22 23 22 23 23 24 21 18 15 9 6 6 4 2 2 4 6 9 12 12 8 7 9
11 16 20 29 29 23 27 26 26 26 20 27 33 30 23 19 19 14 12 10 6 3 2 5 8 12 13 13 14 14 12 5
13 15 25 26 27 25 21 26 22 20 29 24 23 27 26 26 21 16 9 5 2 1 5 8 12 11 12 13 13 5 3 5
10 22 23 22 22 25 22 25 21 20 23 26 28 29 26 22 15 10 6 3 2 2 5 9 9 11 12 11 4 6 6 8
13 12 19 25 28 28 27 25 23 21 23 26 27 25 19 15 10 7 6 4 1 4 8 9 10 12 12 9 10 11 11 12
13 16 22 26 24 22 23 25 23 20 20 20 18 16 14 11 10 8 6 3 1 5 6 9 10 11 12 13 13 11 13 9
12 17 26 27 23 21 20 24 22 20 19 18 15 12 11 13 10 7 6 2 1 4 7 9 10 12 11 12 11 10 11 11
13 16 24 29 28 24 20 25 26 23 21 17 13 12 13 11 9 8 4 2 4 5 7 9 12 13 11 10 7 7 9 15
15 17 26 32 32 30 25 26 28 25 23 17 12 12 13 11 10 8 6 4 4 5 8 10 13 15 10 7 8 11 11 13
15 21 26 28 32 33 29 27 31 29 23 16 15 14 16 12 11 8 7 7 5 6 8 11 12 7 10 14 13 13 10 2
14 15 23 28 30 34 32 29 32 29 22 18 17 17 16 14 10 9 8 8 8 9 9 11 14 12 13 9 6 4 4 5
14 13 19 27 31 34 35 29 31 29 23 21 19 20 20 17 10 6 7 10 10 9 13 13 16 15 11 9 8 4 5 6
8 14 11 21 23 28 33 31 30 28 27 19 18 19 20 13 5 4 4 7 10 15 16 17 14 14 12 11 10 10 8 7
6 9 14 20 23 26 31 33 31 28 25 17 12 17 14 9 3 9 14 12 16 19 18 15 15 14 13 13 12 10 6 6
7 7 13 18 25 32 32 33 32 29 20 17 17 16 10 6 10 8 12 15 17 15 15 13 13 12 13 11 10 8 7 6
6 4 8 20 27 30 31 31 31 23 20 19 14 10 9 8 9 14 13 15 17 14 14 14 15 14 10 10 11 9 7 6
Wind_Direction
156 162 157 157 160 161 163 167 169 174 173 166 131 149 135 129 114 115 113 108 109 89 92 80 60 27 1 351 353 346 340 334
151 156 144 155 158 161 162 167 170 169 176 165 164 165 151 138 135 126 110 113 117 99 10 347 338 343 347 348 347 343 339 329
148 144 132 151 160 166 166 169 170 171 171 174 179 166 161 160 155 149 155 130 133 49 14 351 336 335 331 332 336 332 329 358
162 153 136 142 155 168 173 172 174 175 171 186 172 167 155 147 152 150 141 121 96 93 93 10 7 359 348 335 331 338 337 345
162 155 140 146 153 160 166 177 173 176 183 161 164 155 162 171 155 145 136 133 144 200 275 325 328 329 331 329 316 311 308 4
160 150 153 157 155 157 168 168 176 193 166 167 171 149 134 135 135 138 152 169 204 285 320 312 323 336 335 328 312 291 9 27
138 151 152 159 163 165 183 161 145 151 162 154 153 148 142 141 150 164 171 148 104 334 330 335 341 338 332 330 351 347 338 336
130 129 133 133 141 146 147 149 138 147 148 144 146 145 152 157 160 163 146 153 109 355 340 340 342 343 318 308 327 325 322 326
137 139 135 140 144 148 151 152 145 154 156 151 151 156 157 162 162 156 164 180 63 352 338 332 342 329 318 301 320 311 318 319
141 144 146 152 157 165 165 159 157 160 160 162 166 162 170 162 164 162 167 167 306 319 332 341 327 321 326 297 303 302 314 315
155 157 159 164 170 178 178 171 167 166 169 175 173 169 169 170 168 176 197 200 304 324 332 331 320 318 326 316 280 305 302 308
168 167 168 171 176 180 183 177 171 171 171 178 182 180 179 179 185 192 206 232 294 310 325 315 314 308 314 323 323 319 309 316
171 166 166 169 174 181 182 177 175 177 179 181 188 191 193 199 202 214 224 240 282 280 285 301 304 277 307 320 326 312 308 22
175 163 167 170 174 179 182 175 177 178 181 187 193 202 209 210 213 216 225 249 260 254 285 300 301 269 300 304 304 349 55 41
181 169 172 171 175 177 181 176 179 177 183 190 200 205 213 216 208 200 273 266 249 269 308 294 290 264 263 260 271 297 311 321
193 172 169 171 172 173 178 184 179 180 181 184 205 219 216 183 193 248 254 285 287 294 291 275 288 256 256 254 249 266 299 294
63 171 167 176 173 172 181 188 179 179 177 190 210 160 167 174 181 324 307 295 292 288 277 269 283 250 254 252 253 262 261 275
62 140 177 173 171 182 188 188 182 180 180 174 157 147 126 70 6 329 299 297 295 285 269 277 278 254 240 243 243 247 259 264
55 73 148 188 191 193 193 182 176 171 165 134 125 111 92 41 337 299 300 293 293 290 285 288 282 245 245 237 236 239 245 263